Voltar ao catálogo

ICEYE-X64

AtivoCiênciaSSO
NORAD 67373·PAYLOAD·🇫🇮 Finland

Lançado Jan 11, 2026 de Vandenberg Space Force Base

Loading…

Próximas Passagens (próximas 24 horas)

TLE

AtualizadoSource: Space-Track

Época: Sep 14, 2026, 10:12 UTC

1 67373U 26004L   26257.42523481  .00000613  00000-0  72541-4 0  9992
2 67373  97.8080 254.5996 0005486 188.3266 171.7861 14.88071902 36568

Acompanhe ICEYE-X64 em tempo real com AllMySat

Download on the App Store